User: anonymous   Login
Location: Unspecified
(0.0000°N, 0.0000°E)
Time: 18:53:02
(UTC+00:00)
Language:

NUDT-PHONESAT - Orbit

View from above orbital plane
View from above orbital plane
View from above satellite
View from above satellite

Ground track
Ground track

The orbit data is extracted from the following two-line orbital elements,

1 40900U 15049B   17084.91463635 +.00003254 +00000-0 +15896-3 0  9995
2 40900 097.4447 094.0425 0015207 149.8495 210.3618 15.18863613083812
Epoch (UTC): 25 March 2017 21:57:04
Eccentricity: 0.0015207
inclination: 97.4447°
perigee height: 499 km
apogee height: 520 km
right ascension of ascending node: 94.0425°
argument of perigee: 149.8495°
revolutions per day: 15.18863613
mean anomaly at epoch: 210.3618°
orbit number at epoch: 8381

The dashed part of the orbit path shows where the satellite is in the earth's shadow,  

DLR